Time,TemperatureF,DewpointF,PressureIn,WindDirection,WindDirectionDegrees,WindSpeedMPH,WindSpeedGustMPH,Humidity,HourlyPrecipIn,Conditions,Clouds,dailyrainin,SoftwareType,DateUTC
2013-03-05 00:00:00,27.9,23.7,30.09,East,84,2.0,2.0,84,0.00,,,0.00,Wunderground v.1.15,2013-03-05 06:00:00,
2013-03-05 00:05:00,27.9,23.7,30.09,East,84,1.0,2.0,84,0.00,,,0.00,Wunderground v.1.15,2013-03-05 06:05:00,
2013-03-05 00:15:00,27.9,23.7,30.08,ESE,111,1.0,1.0,84,0.00,,,0.00,Wunderground v.1.15,2013-03-05 06:15:00,
2013-03-05 00:20:00,27.9,24.0,30.08,East,82,0.0,0.0,85,0.00,,,0.00,Wunderground v.1.15,2013-03-05 06:20:00,
2013-03-05 00:30:00,27.9,24.0,30.08,East,86,1.0,1.0,85,0.00,,,0.00,Wunderground v.1.15,2013-03-05 06:30:00,
2013-03-05 00:35:00,27.9,24.0,30.08,ESE,108,1.0,4.0,85,0.00,,,0.00,Wunderground v.1.15,2013-03-05 06:35:00,
2013-03-05 00:40:00,27.9,24.0,30.08,East,86,1.0,8.0,85,0.00,,,0.00,Wunderground v.1.15,2013-03-05 06:40:00,
2013-03-05 00:50:00,27.9,24.0,30.08,NE,38,1.0,1.0,85,0.00,,,0.00,Wunderground v.1.15,2013-03-05 06:50:00,
2013-03-05 00:55:00,27.9,24.0,30.08,ESE,108,1.0,6.0,85,0.00,,,0.00,Wunderground v.1.15,2013-03-05 06:55:00,
2013-03-05 01:00:00,27.9,24.0,30.08,ENE,71,1.0,1.0,85,0.00,,,0.00,Wunderground v.1.15,2013-03-05 07:00:00,
2013-03-05 01:05:00,27.9,24.0,30.08,NNE,32,1.0,1.0,85,0.00,,,0.00,Wunderground v.1.15,2013-03-05 07:05:00,
2013-03-05 01:15:00,27.9,24.0,30.08,East,84,0.0,1.0,85,0.00,,,0.00,Wunderground v.1.15,2013-03-05 07:15:00,
2013-03-05 01:20:00,28.0,24.1,30.08,East,88,1.0,1.0,85,0.00,,,0.00,Wunderground v.1.15,2013-03-05 07:20:00,
2013-03-05 01:25:00,28.0,24.1,30.08,East,95,1.0,1.0,85,0.00,,,0.00,Wunderground v.1.15,2013-03-05 07:25:00,
2013-03-05 01:35:00,28.1,26.1,30.07,East,85,1.0,1.0,92,0.00,,,0.00,Wunderground v.1.15,2013-03-05 07:35:00,
2013-03-05 01:40:00,28.1,24.5,30.07,East,99,0.0,0.0,86,0.00,,,0.00,Wunderground v.1.15,2013-03-05 07:40:00,
2013-03-05 01:45:00,28.1,24.5,30.06,East,84,1.0,2.0,86,0.00,,,0.00,Wunderground v.1.15,2013-03-05 07:45:00,
2013-03-05 01:50:00,28.1,24.5,30.06,ESE,114,1.0,1.0,86,0.00,,,0.00,Wunderground v.1.15,2013-03-05 07:50:00,
2013-03-05 01:55:00,28.2,24.6,30.06,ESE,115,1.0,1.0,86,0.00,,,0.00,Wunderground v.1.15,2013-03-05 07:55:00,
2013-03-05 02:00:00,28.2,24.6,30.05,East,101,1.0,2.0,86,0.00,,,0.00,Wunderground v.1.15,2013-03-05 08:00:00,
2013-03-05 02:05:00,28.2,24.6,30.05,East,90,1.0,2.0,86,0.00,,,0.00,Wunderground v.1.15,2013-03-05 08:05:00,
2013-03-05 02:15:00,28.3,24.6,30.05,ESE,115,1.0,1.0,86,0.00,,,0.00,Wunderground v.1.15,2013-03-05 08:15:00,
2013-03-05 02:20:00,28.3,24.6,30.05,East,86,0.0,3.0,86,0.00,,,0.00,Wunderground v.1.15,2013-03-05 08:20:00,
2013-03-05 02:30:00,28.3,24.6,30.05,East,86,1.0,1.0,86,0.00,,,0.00,Wunderground v.1.15,2013-03-05 08:30:00,
2013-03-05 02:35:00,28.3,24.6,30.05,East,82,1.0,1.0,86,0.00,,,0.00,Wunderground v.1.15,2013-03-05 08:35:00,
2013-03-05 02:40:00,28.3,24.6,30.05,East,89,1.0,1.0,86,0.00,,,0.00,Wunderground v.1.15,2013-03-05 08:40:00,
2013-03-05 02:45:00,28.3,24.9,30.04,East,89,0.0,2.0,87,0.00,,,0.00,Wunderground v.1.15,2013-03-05 08:45:00,
2013-03-05 02:55:00,28.3,24.9,30.04,East,95,0.0,0.0,87,0.00,,,0.00,Wunderground v.1.15,2013-03-05 08:55:00,
2013-03-05 03:00:00,28.3,24.9,30.04,East,94,0.0,1.0,87,0.00,,,0.00,Wunderground v.1.15,2013-03-05 09:00:00,
2013-03-05 03:05:00,28.2,25.1,30.04,East,86,0.0,1.0,88,0.00,,,0.00,Wunderground v.1.15,2013-03-05 09:05:00,
2013-03-05 03:15:00,28.2,25.1,30.03,East,87,0.0,0.0,88,0.00,,,0.00,Wunderground v.1.15,2013-03-05 09:15:00,
2013-03-05 03:20:00,28.3,25.2,30.02,East,87,0.0,0.0,88,0.00,,,0.00,Wunderground v.1.15,2013-03-05 09:20:00,
2013-03-05 03:25:00,28.3,25.2,30.02,ENE,69,0.0,0.0,88,0.00,,,0.00,Wunderground v.1.15,2013-03-05 09:25:00,
2013-03-05 03:30:00,28.3,25.2,30.02,East,80,0.0,0.0,88,0.00,,,0.00,Wunderground v.1.15,2013-03-05 09:30:00,
2013-03-05 03:35:00,28.2,25.4,30.02,East,84,1.0,1.0,89,0.00,,,0.00,Wunderground v.1.15,2013-03-05 09:35:00,
2013-03-05 03:40:00,28.3,25.5,30.02,ENE,62,1.0,1.0,89,0.00,,,0.00,Wunderground v.1.15,2013-03-05 09:40:00,
2013-03-05 03:45:00,28.3,25.5,30.02,ENE,67,1.0,1.0,89,0.00,,,0.00,Wunderground v.1.15,2013-03-05 09:45:00,
2013-03-05 03:55:00,28.1,25.5,30.02,ESE,113,0.0,1.0,90,0.00,,,0.00,Wunderground v.1.15,2013-03-05 09:55:00,
2013-03-05 04:00:00,28.1,25.5,30.02,East,91,0.0,4.0,90,0.00,,,0.00,Wunderground v.1.15,2013-03-05 10:00:00,
2013-03-05 04:05:00,28.0,25.4,30.01,East,97,1.0,4.0,90,0.00,,,0.00,Wunderground v.1.15,2013-03-05 10:05:00,
2013-03-05 04:15:00,27.9,25.6,30.02,East,98,0.0,0.0,91,0.00,,,0.00,Wunderground v.1.15,2013-03-05 10:15:00,
2013-03-05 04:25:00,27.8,25.5,30.02,East,101,1.0,1.0,91,0.00,,,0.00,Wunderground v.1.15,2013-03-05 10:25:00,
2013-03-05 04:30:00,27.8,25.8,30.02,ESE,103,1.0,1.0,92,0.00,,,0.00,Wunderground v.1.15,2013-03-05 10:30:00,
2013-03-05 04:40:00,27.8,25.8,30.01,East,94,0.0,0.0,92,0.00,,,0.00,Wunderground v.1.15,2013-03-05 10:40:00,
2013-03-05 04:45:00,27.8,25.8,30.01,East,94,0.0,0.0,92,0.00,,,0.00,Wunderground v.1.15,2013-03-05 10:45:00,
2013-03-05 04:50:00,27.8,25.8,30.01,East,99,0.0,0.0,92,0.00,,,0.00,Wunderground v.1.15,2013-03-05 10:50:00,
2013-03-05 04:55:00,27.8,25.8,30.02,East,95,0.0,0.0,92,0.00,,,0.00,Wunderground v.1.15,2013-03-05 10:55:00,
2013-03-05 05:00:00,27.8,25.8,30.02,East,83,0.0,0.0,92,0.00,,,0.00,Wunderground v.1.15,2013-03-05 11:00:00,
2013-03-05 05:05:00,27.8,26.0,30.01,ENE,69,0.0,0.0,93,0.00,,,0.00,Wunderground v.1.15,2013-03-05 11:05:00,
2013-03-05 05:15:00,27.8,26.0,30.01,ENE,78,0.0,0.0,93,0.00,,,0.00,Wunderground v.1.15,2013-03-05 11:15:00,
2013-03-05 05:20:00,27.9,26.1,30.02,ENE,78,0.0,0.0,93,0.00,,,0.00,Wunderground v.1.15,2013-03-05 11:20:00,
2013-03-05 05:25:00,27.9,26.1,30.02,ENE,78,0.0,0.0,93,0.00,,,0.00,Wunderground v.1.15,2013-03-05 11:25:00,
2013-03-05 05:35:00,27.9,26.1,30.01,ENE,78,0.0,1.0,93,0.00,,,0.00,Wunderground v.1.15,2013-03-05 11:35:00,
2013-03-05 05:40:00,27.9,26.1,30.01,ESE,123,0.0,0.0,93,0.00,,,0.00,Wunderground v.1.15,2013-03-05 11:40:00,
2013-03-05 05:50:00,27.9,26.1,30.01,ESE,122,0.0,1.0,93,0.00,,,0.00,Wunderground v.1.15,2013-03-05 11:50:00,
2013-03-05 05:55:00,27.9,26.1,30.01,ESE,122,0.0,1.0,93,0.00,,,0.00,Wunderground v.1.15,2013-03-05 11:55:00,
2013-03-05 06:00:00,28.0,26.2,30.01,ENE,76,0.0,0.0,93,0.00,,,0.00,Wunderground v.1.15,2013-03-05 12:00:00,
2013-03-05 06:05:00,28.0,26.2,30.01,East,86,0.0,0.0,93,0.00,,,0.00,Wunderground v.1.15,2013-03-05 12:05:00,
2013-03-05 06:15:00,28.0,26.2,30.01,East,86,0.0,0.0,93,0.00,,,0.00,Wunderground v.1.15,2013-03-05 12:15:00,
2013-03-05 06:20:00,28.0,26.2,30.01,East,86,0.0,0.0,93,0.00,,,0.00,Wunderground v.1.15,2013-03-05 12:20:00,
2013-03-05 06:25:00,28.0,26.2,30.01,East,86,0.0,0.0,93,0.00,,,0.00,Wunderground v.1.15,2013-03-05 12:25:00,
2013-03-05 06:30:00,28.0,26.5,30.01,East,86,0.0,0.0,94,0.00,,,0.00,Wunderground v.1.15,2013-03-05 12:30:00,
2013-03-05 06:35:00,28.0,26.5,30.01,East,86,0.0,0.0,94,0.00,,,0.00,Wunderground v.1.15,2013-03-05 12:35:00,
2013-03-05 06:40:00,28.0,26.5,30.01,East,86,0.0,0.0,94,0.00,,,0.00,Wunderground v.1.15,2013-03-05 12:40:00,
2013-03-05 06:50:00,28.0,26.5,30.02,East,86,0.0,0.0,94,0.00,,,0.00,Wunderground v.1.15,2013-03-05 12:50:00,
2013-03-05 06:55:00,28.0,26.5,30.02,East,86,0.0,0.0,94,0.00,,,0.00,Wunderground v.1.15,2013-03-05 12:55:00,
2013-03-05 07:00:00,28.0,26.5,30.02,East,86,0.0,0.0,94,0.00,,,0.00,Wunderground v.1.15,2013-03-05 13:00:00,
2013-03-05 07:05:00,28.0,26.5,30.02,East,86,0.0,0.0,94,0.00,,,0.00,Wunderground v.1.15,2013-03-05 13:05:00,
2013-03-05 07:15:00,28.0,26.5,30.02,East,86,0.0,1.0,94,0.00,,,0.00,Wunderground v.1.15,2013-03-05 13:15:00,
2013-03-05 07:25:00,28.1,26.6,30.02,East,86,0.0,0.0,94,0.00,,,0.00,Wunderground v.1.15,2013-03-05 13:25:00,
2013-03-05 07:30:00,28.1,26.6,30.02,East,86,0.0,0.0,94,0.00,,,0.00,Wunderground v.1.15,2013-03-05 13:30:00,
2013-03-05 07:35:00,28.1,26.6,30.02,East,86,0.0,0.0,94,0.00,,,0.00,Wunderground v.1.15,2013-03-05 13:35:00,
2013-03-05 07:40:00,28.2,26.7,30.02,East,86,0.0,0.0,94,0.00,,,0.00,Wunderground v.1.15,2013-03-05 13:40:00,
2013-03-05 07:45:00,28.3,26.8,30.01,East,86,0.0,0.0,94,0.00,,,0.00,Wunderground v.1.15,2013-03-05 13:45:00,
2013-03-05 07:50:00,28.4,26.9,30.01,North,350,0.0,1.0,94,0.00,,,0.00,Wunderground v.1.15,2013-03-05 13:50:00,
2013-03-05 08:00:00,28.5,27.0,30.02,North,350,0.0,0.0,94,0.00,,,0.00,Wunderground v.1.15,2013-03-05 14:00:00,
2013-03-05 08:05:00,28.6,27.1,30.01,North,350,0.0,0.0,94,0.00,,,0.00,Wunderground v.1.15,2013-03-05 14:05:00,
2013-03-05 08:15:00,28.7,27.2,30.01,North,349,0.0,1.0,94,0.00,,,0.00,Wunderground v.1.15,2013-03-05 14:15:00,
2013-03-05 08:20:00,28.7,27.2,30.01,North,349,0.0,0.0,94,0.00,,,0.00,Wunderground v.1.15,2013-03-05 14:20:00,
2013-03-05 08:25:00,28.7,27.2,30.01,North,349,0.0,0.0,94,0.00,,,0.00,Wunderground v.1.15,2013-03-05 14:25:00,
2013-03-05 08:35:00,28.6,27.1,30.01,NNW,348,0.0,0.0,94,0.00,,,0.00,Wunderground v.1.15,2013-03-05 14:35:00,
2013-03-05 08:40:00,28.7,27.2,30.00,North,360,0.0,0.0,94,0.00,,,0.00,Wunderground v.1.15,2013-03-05 14:40:00,
2013-03-05 08:45:00,28.7,27.2,30.00,North,360,0.0,0.0,94,0.00,,,0.00,Wunderground v.1.15,2013-03-05 14:45:00,
2013-03-05 08:50:00,28.7,27.2,30.00,NNW,341,0.0,2.0,94,0.00,,,0.00,Wunderground v.1.15,2013-03-05 14:50:00,
2013-03-05 09:00:00,28.7,27.2,30.00,NNW,342,1.0,1.0,94,0.00,,,0.00,Wunderground v.1.15,2013-03-05 15:00:00,
2013-03-05 09:05:00,28.8,27.3,30.00,NNW,342,0.0,1.0,94,0.00,,,0.00,Wunderground v.1.15,2013-03-05 15:05:00,
2013-03-05 09:15:00,29.0,27.5,30.00,NNW,341,0.0,0.0,94,0.00,,,0.00,Wunderground v.1.15,2013-03-05 15:15:00,
2013-03-05 09:20:00,29.0,27.5,30.00,NNW,341,0.0,0.0,94,0.00,,,0.00,Wunderground v.1.15,2013-03-05 15:20:00,
2013-03-05 09:25:00,29.1,27.6,30.00,NNW,342,0.0,0.0,94,0.00,,,0.00,Wunderground v.1.15,2013-03-05 15:25:00,
2013-03-05 09:30:00,29.2,27.7,30.00,NNW,342,0.0,0.0,94,0.00,,,0.00,Wunderground v.1.15,2013-03-05 15:30:00,
2013-03-05 09:35:00,29.3,27.8,29.99,NNW,341,0.0,0.0,94,0.00,,,0.00,Wunderground v.1.15,2013-03-05 15:35:00,
2013-03-05 09:40:00,29.4,27.9,29.99,NNW,342,0.0,0.0,94,0.00,,,0.00,Wunderground v.1.15,2013-03-05 15:40:00,
2013-03-05 09:50:00,29.7,28.2,29.99,NNW,342,0.0,0.0,94,0.00,,,0.00,Wunderground v.1.15,2013-03-05 15:50:00,
2013-03-05 09:55:00,29.9,28.4,29.99,NNW,341,0.0,0.0,94,0.00,,,0.00,Wunderground v.1.15,2013-03-05 15:55:00,
2013-03-05 10:05:00,30.1,28.6,29.98,NNW,341,0.0,0.0,94,0.00,,,0.00,Wunderground v.1.15,2013-03-05 16:05:00,
2013-03-05 10:15:00,30.2,28.7,29.98,NNW,342,1.0,1.0,94,0.00,,,0.00,Wunderground v.1.15,2013-03-05 16:15:00,
2013-03-05 10:20:00,30.5,29.0,29.98,NNW,341,0.0,0.0,94,0.00,,,0.00,Wunderground v.1.15,2013-03-05 16:20:00,
2013-03-05 10:25:00,30.7,29.2,29.98,NNW,342,0.0,0.0,94,0.00,,,0.00,Wunderground v.1.15,2013-03-05 16:25:00,
2013-03-05 10:35:00,31.3,29.8,29.97,NNW,342,0.0,0.0,94,0.00,,,0.00,Wunderground v.1.15,2013-03-05 16:35:00,
2013-03-05 10:40:00,31.5,30.0,29.97,North,355,0.0,0.0,94,0.00,,,0.00,Wunderground v.1.15,2013-03-05 16:40:00,
2013-03-05 10:45:00,31.4,29.9,29.97,North,355,0.0,0.0,94,0.00,,,0.00,Wunderground v.1.15,2013-03-05 16:45:00,
2013-03-05 10:50:00,31.4,29.9,29.97,NNW,333,0.0,0.0,94,0.00,,,0.00,Wunderground v.1.15,2013-03-05 16:50:00,
2013-03-05 11:00:00,31.6,30.1,29.97,NNW,333,0.0,0.0,94,0.00,,,0.00,Wunderground v.1.15,2013-03-05 17:00:00,
2013-03-05 11:05:00,31.6,30.1,29.97,NNW,333,0.0,0.0,94,0.00,,,0.00,Wunderground v.1.15,2013-03-05 17:05:00,
2013-03-05 11:15:00,31.5,29.7,29.97,NNW,333,0.0,0.0,93,0.00,,,0.00,Wunderground v.1.15,2013-03-05 17:15:00,
2013-03-05 11:20:00,31.5,29.7,29.97,NNW,333,0.0,0.0,93,0.00,,,0.00,Wunderground v.1.15,2013-03-05 17:20:00,
2013-03-05 11:25:00,31.5,29.7,29.97,NNW,333,0.0,0.0,93,0.00,,,0.00,Wunderground v.1.15,2013-03-05 17:25:00,
2013-03-05 11:30:00,31.5,29.7,29.97,NNW,333,0.0,2.0,93,0.00,,,0.00,Wunderground v.1.15,2013-03-05 17:30:00,
2013-03-05 11:35:00,31.6,29.8,29.97,NNW,331,0.0,2.0,93,0.00,,,0.00,Wunderground v.1.15,2013-03-05 17:35:00,
2013-03-05 11:40:00,31.7,29.9,29.97,NNW,332,1.0,1.0,93,0.00,,,0.00,Wunderground v.1.15,2013-03-05 17:40:00,
2013-03-05 11:50:00,31.9,30.1,29.97,NNW,331,1.0,1.0,93,0.00,,,0.00,Wunderground v.1.15,2013-03-05 17:50:00,
2013-03-05 12:00:00,32.2,30.4,29.97,NNW,347,1.0,1.0,93,0.00,,,0.00,Wunderground v.1.15,2013-03-05 18:00:00,
2013-03-05 12:05:00,32.2,30.4,29.97,NNW,346,1.0,3.0,93,0.00,,,0.00,Wunderground v.1.15,2013-03-05 18:05:00,
2013-03-05 12:15:00,32.1,30.3,29.97,NNW,342,2.0,2.0,93,0.00,,,0.00,Wunderground v.1.15,2013-03-05 18:15:00,
2013-03-05 12:20:00,32.0,30.2,29.97,NW,322,1.0,4.0,93,0.00,,,0.00,Wunderground v.1.15,2013-03-05 18:20:00,
2013-03-05 12:25:00,31.9,30.1,29.97,NNW,336,2.0,4.0,93,0.00,,,0.00,Wunderground v.1.15,2013-03-05 18:25:00,
2013-03-05 12:30:00,31.9,30.1,29.96,NNW,336,2.0,3.0,93,0.00,,,0.00,Wunderground v.1.15,2013-03-05 18:30:00,
2013-03-05 12:35:00,31.9,30.1,29.96,NNW,336,2.0,3.0,93,0.00,,,0.00,Wunderground v.1.15,2013-03-05 18:35:00,
2013-03-05 12:40:00,31.9,30.1,29.96,NNW,333,2.0,2.0,93,0.00,,,0.00,Wunderground v.1.15,2013-03-05 18:40:00,
2013-03-05 12:45:00,31.8,30.0,29.96,NW,322,2.0,4.0,93,0.00,,,0.00,Wunderground v.1.15,2013-03-05 18:45:00,
2013-03-05 12:55:00,31.7,29.9,29.96,NNW,336,3.0,4.0,93,0.00,,,0.00,Wunderground v.1.15,2013-03-05 18:55:00,
2013-03-05 13:00:00,31.7,29.9,29.96,NNW,335,2.0,2.0,93,0.00,,,0.00,Wunderground v.1.15,2013-03-05 19:00:00,
2013-03-05 13:05:00,31.7,29.6,29.96,NNW,336,2.0,2.0,92,0.00,,,0.00,Wunderground v.1.15,2013-03-05 19:05:00,
2013-03-05 13:15:00,31.7,29.6,29.96,NNW,340,2.0,3.0,92,0.00,,,0.00,Wunderground v.1.15,2013-03-05 19:15:00,
2013-03-05 13:20:00,31.6,29.5,29.95,NNW,347,3.0,3.0,92,0.00,,,0.00,Wunderground v.1.15,2013-03-05 19:20:00,
2013-03-05 13:25:00,31.6,29.8,29.95,NNW,337,3.0,3.0,93,0.00,,,0.00,Wunderground v.1.15,2013-03-05 19:25:00,
2013-03-05 13:35:00,31.6,29.8,29.95,NNW,333,2.0,3.0,93,0.00,,,0.00,Wunderground v.1.15,2013-03-05 19:35:00,
2013-03-05 13:45:00,31.6,29.8,29.95,NNW,336,0.0,1.0,93,0.00,,,0.00,Wunderground v.1.15,2013-03-05 19:45:00,
2013-03-05 13:50:00,31.5,29.7,29.96,NNW,340,0.0,0.0,93,0.00,,,0.00,Wunderground v.1.15,2013-03-05 19:50:00,
2013-03-05 14:00:00,31.5,29.7,29.96,NNW,342,0.0,0.0,93,0.00,,,0.00,Wunderground v.1.15,2013-03-05 20:00:00,
2013-03-05 14:05:00,31.5,29.7,29.96,NW,325,0.0,0.0,93,0.00,,,0.01,Wunderground v.1.15,2013-03-05 20:05:00,
2013-03-05 14:15:00,31.2,29.4,29.96,NNW,333,0.0,0.0,93,0.07,,,0.03,Wunderground v.1.15,2013-03-05 20:15:00,
2013-03-05 14:20:00,31.2,29.1,29.97,NW,322,0.0,0.0,92,0.07,,,0.03,Wunderground v.1.15,2013-03-05 20:20:00,
2013-03-05 14:25:00,31.0,29.2,29.97,NNW,334,0.0,0.0,93,0.06,,,0.04,Wunderground v.1.15,2013-03-05 20:25:00,
2013-03-05 14:35:00,30.9,29.1,29.97,NW,322,0.0,0.0,93,0.05,,,0.04,Wunderground v.1.15,2013-03-05 20:35:00,
2013-03-05 14:40:00,30.8,29.0,29.97,NNW,329,0.0,0.0,93,0.04,,,0.04,Wunderground v.1.15,2013-03-05 20:40:00,
2013-03-05 14:45:00,30.7,28.9,29.97,NNW,329,0.0,0.0,93,0.04,,,0.05,Wunderground v.1.15,2013-03-05 20:45:00,
2013-03-05 14:50:00,30.7,28.9,29.97,NNW,332,0.0,0.0,93,0.04,,,0.05,Wunderground v.1.15,2013-03-05 20:50:00,
2013-03-05 14:55:00,30.7,28.9,29.97,North,355,0.0,0.0,93,0.04,,,0.05,Wunderground v.1.15,2013-03-05 20:55:00,
2013-03-05 15:05:00,30.5,28.7,29.98,NW,319,0.0,0.0,93,0.00,,,0.06,Wunderground v.1.15,2013-03-05 21:05:00,
2013-03-05 15:15:00,30.3,28.5,29.98,NNW,335,0.0,0.0,93,0.00,,,0.06,Wunderground v.1.15,2013-03-05 21:15:00,
2013-03-05 15:20:00,30.1,28.3,29.98,NNW,333,0.0,0.0,93,0.00,,,0.06,Wunderground v.1.15,2013-03-05 21:20:00,
2013-03-05 15:25:00,30.0,28.2,29.98,NNW,333,0.0,0.0,93,0.00,,,0.07,Wunderground v.1.15,2013-03-05 21:25:00,
2013-03-05 15:30:00,29.9,28.1,29.98,NNW,330,0.0,0.0,93,0.00,,,0.07,Wunderground v.1.15,2013-03-05 21:30:00,
2013-03-05 15:35:00,29.7,27.9,29.99,NNW,327,0.0,0.0,93,0.00,,,0.07,Wunderground v.1.15,2013-03-05 21:35:00,
2013-03-05 15:45:00,29.6,27.8,30.00,NNW,340,0.0,0.0,93,0.00,,,0.07,Wunderground v.1.15,2013-03-05 21:45:00,
2013-03-05 15:50:00,29.5,27.7,30.00,NNW,337,0.0,0.0,93,0.00,,,0.08,Wunderground v.1.15,2013-03-05 21:50:00,
2013-03-05 15:55:00,29.5,27.7,30.00,NW,325,0.0,0.0,93,0.00,,,0.08,Wunderground v.1.15,2013-03-05 21:55:00,
2013-03-05 16:00:00,29.4,27.6,30.00,NNW,346,0.0,0.0,93,0.00,,,0.08,Wunderground v.1.15,2013-03-05 22:00:00,
2013-03-05 16:05:00,29.4,27.6,30.01,NW,315,0.0,0.0,93,0.00,,,0.08,Wunderground v.1.15,2013-03-05 22:05:00,
2013-03-05 16:15:00,29.3,27.5,30.01,NW,306,0.0,0.0,93,0.00,,,0.08,Wunderground v.1.15,2013-03-05 22:15:00,
2013-03-05 16:20:00,29.2,27.4,30.01,NNW,346,0.0,0.0,93,0.00,,,0.08,Wunderground v.1.15,2013-03-05 22:20:00,
2013-03-05 16:30:00,29.2,27.4,30.02,NNW,330,0.0,0.0,93,0.00,,,0.08,Wunderground v.1.15,2013-03-05 22:30:00,
2013-03-05 16:35:00,29.2,27.4,30.02,NW,326,0.0,0.0,93,0.00,,,0.08,Wunderground v.1.15,2013-03-05 22:35:00,
2013-03-05 16:40:00,29.1,27.3,30.02,NNE,25,0.0,0.0,93,0.00,,,0.08,Wunderground v.1.15,2013-03-05 22:40:00,
2013-03-05 16:45:00,29.0,27.2,30.03,NNW,332,0.0,0.0,93,0.00,,,0.08,Wunderground v.1.15,2013-03-05 22:45:00,
2013-03-05 16:50:00,29.0,27.2,30.03,NNW,331,0.0,0.0,93,0.00,,,0.09,Wunderground v.1.15,2013-03-05 22:50:00,
2013-03-05 17:00:00,28.9,27.4,30.03,WNW,294,0.0,0.0,94,0.00,,,0.09,Wunderground v.1.15,2013-03-05 23:00:00,
2013-03-05 17:05:00,28.9,27.4,30.04,NW,326,0.0,0.0,94,0.00,,,0.09,Wunderground v.1.15,2013-03-05 23:05:00,
2013-03-05 17:15:00,28.8,27.0,30.04,North,355,0.0,0.0,93,0.00,,,0.09,Wunderground v.1.15,2013-03-05 23:15:00,
2013-03-05 17:20:00,28.4,26.6,30.05,North,355,0.0,0.0,93,0.00,,,0.09,Wunderground v.1.15,2013-03-05 23:20:00,
2013-03-05 17:25:00,28.2,26.4,30.05,NNW,347,0.0,0.0,93,0.00,,,0.09,Wunderground v.1.15,2013-03-05 23:25:00,
2013-03-05 17:30:00,28.1,26.3,30.05,NNW,341,0.0,0.0,93,0.00,,,0.09,Wunderground v.1.15,2013-03-05 23:30:00,
2013-03-05 17:40:00,27.9,26.1,30.06,NNW,341,0.0,0.0,93,0.00,,,0.09,Wunderground v.1.15,2013-03-05 23:40:00,
2013-03-05 17:45:00,27.8,26.0,30.06,NNW,336,0.0,0.0,93,0.00,,,0.09,Wunderground v.1.15,2013-03-05 23:45:00,
2013-03-05 17:50:00,27.7,25.9,30.07,NNW,337,0.0,0.0,93,0.00,,,0.09,Wunderground v.1.15,2013-03-05 23:50:00,
2013-03-05 17:55:00,27.5,25.7,30.07,NNW,331,0.0,0.0,93,0.00,,,0.09,Wunderground v.1.15,2013-03-05 23:55:00,
2013-03-05 18:00:00,27.5,25.7,30.08,North,360,0.0,0.0,93,0.00,,,0.09,Wunderground v.1.15,2013-03-06 00:00:00,
2013-03-05 18:05:00,27.3,25.8,30.08,NNW,346,0.0,0.0,94,0.00,,,0.09,Wunderground v.1.15,2013-03-06 00:05:00,
2013-03-05 18:15:00,27.1,25.3,30.08,NNW,338,0.0,0.0,93,0.00,,,0.09,Wunderground v.1.15,2013-03-06 00:15:00,
2013-03-05 18:25:00,27.0,25.2,30.09,NNW,348,0.0,0.0,93,0.00,,,0.09,Wunderground v.1.15,2013-03-06 00:25:00,
2013-03-05 18:30:00,26.9,25.4,30.10,NW,325,0.0,0.0,94,0.00,,,0.09,Wunderground v.1.15,2013-03-06 00:30:00,
2013-03-05 18:35:00,26.8,25.3,30.10,NNW,340,0.0,0.0,94,0.00,,,0.09,Wunderground v.1.15,2013-03-06 00:35:00,
2013-03-05 18:40:00,26.7,25.2,30.10,NNW,340,0.0,0.0,94,0.00,,,0.09,Wunderground v.1.15,2013-03-06 00:40:00,
2013-03-05 18:45:00,26.6,24.8,30.10,NNW,333,0.0,0.0,93,0.00,,,0.09,Wunderground v.1.15,2013-03-06 00:45:00,
2013-03-05 18:50:00,26.5,24.8,30.11,North,360,0.0,0.0,93,0.00,,,0.09,Wunderground v.1.15,2013-03-06 00:50:00,
2013-03-05 19:00:00,26.4,24.7,30.11,NNW,327,0.0,0.0,93,0.00,,,0.09,Wunderground v.1.15,2013-03-06 01:00:00,
2013-03-05 19:05:00,26.3,24.8,30.11,North,5,0.0,0.0,94,0.00,,,0.09,Wunderground v.1.15,2013-03-06 01:05:00,
2013-03-05 19:15:00,26.4,24.9,30.12,NNW,340,0.0,0.0,94,0.00,,,0.09,Wunderground v.1.15,2013-03-06 01:15:00,
2013-03-05 19:20:00,26.4,24.9,30.12,NNW,340,0.0,0.0,94,0.00,,,0.09,Wunderground v.1.15,2013-03-06 01:20:00,
2013-03-05 19:25:00,26.4,24.9,30.12,NNW,338,0.0,0.0,94,0.00,,,0.09,Wunderground v.1.15,2013-03-06 01:25:00,
2013-03-05 19:35:00,26.4,24.9,30.13,NNW,331,0.0,0.0,94,0.00,,,0.09,Wunderground v.1.15,2013-03-06 01:35:00,
2013-03-05 19:40:00,26.4,24.9,30.13,NW,321,0.0,0.0,94,0.00,,,0.09,Wunderground v.1.15,2013-03-06 01:40:00,
2013-03-05 19:50:00,26.4,24.9,30.14,NNW,338,0.0,0.0,94,0.00,,,0.09,Wunderground v.1.15,2013-03-06 01:50:00,
2013-03-05 19:55:00,26.4,24.9,30.14,NNW,334,0.0,0.0,94,0.00,,,0.09,Wunderground v.1.15,2013-03-06 01:55:00,
2013-03-05 20:00:00,26.4,24.9,30.14,NNW,333,0.0,0.0,94,0.00,,,0.09,Wunderground v.1.15,2013-03-06 02:00:00,
2013-03-05 20:05:00,26.3,24.8,30.14,NNW,329,0.0,0.0,94,0.00,,,0.09,Wunderground v.1.15,2013-03-06 02:05:00,
2013-03-05 20:15:00,26.2,24.7,30.15,NNW,340,0.0,0.0,94,0.00,,,0.09,Wunderground v.1.15,2013-03-06 02:15:00,
2013-03-05 20:20:00,26.1,24.6,30.15,North,5,0.0,0.0,94,0.00,,,0.09,Wunderground v.1.15,2013-03-06 02:20:00,
2013-03-05 20:25:00,26.0,24.5,30.15,NNW,333,0.0,0.0,94,0.00,,,0.09,Wunderground v.1.15,2013-03-06 02:25:00,
2013-03-05 20:30:00,25.9,24.4,30.16,North,360,0.0,0.0,94,0.00,,,0.09,Wunderground v.1.15,2013-03-06 02:30:00,
2013-03-05 20:35:00,25.8,24.3,30.16,NNW,327,0.0,0.0,94,0.00,,,0.09,Wunderground v.1.15,2013-03-06 02:35:00,
2013-03-05 20:40:00,25.8,24.3,30.16,NNW,337,0.0,0.0,94,0.00,,,0.09,Wunderground v.1.15,2013-03-06 02:40:00,
2013-03-05 20:50:00,25.8,24.3,30.16,NNW,333,0.0,0.0,94,0.00,,,0.09,Wunderground v.1.15,2013-03-06 02:50:00,
2013-03-05 20:55:00,25.8,24.3,30.17,NNW,332,0.0,0.0,94,0.00,,,0.09,Wunderground v.1.15,2013-03-06 02:55:00,
2013-03-05 21:00:00,25.7,24.2,30.17,NNW,335,0.0,0.0,94,0.00,,,0.09,Wunderground v.1.15,2013-03-06 03:00:00,
2013-03-05 21:05:00,25.7,24.2,30.17,NNW,333,0.0,0.0,94,0.00,,,0.09,Wunderground v.1.15,2013-03-06 03:05:00,
2013-03-05 21:15:00,25.6,24.1,30.17,NNW,345,0.0,0.0,94,0.00,,,0.09,Wunderground v.1.15,2013-03-06 03:15:00,
2013-03-05 21:20:00,25.6,24.1,30.17,NW,309,0.0,0.0,94,0.00,,,0.09,Wunderground v.1.15,2013-03-06 03:20:00,
2013-03-05 21:30:00,25.5,24.0,30.18,NNW,338,0.0,0.0,94,0.00,,,0.09,Wunderground v.1.15,2013-03-06 03:30:00,
2013-03-05 21:35:00,25.5,24.0,30.18,NW,315,0.0,0.0,94,0.00,,,0.09,Wunderground v.1.15,2013-03-06 03:35:00,
2013-03-05 21:40:00,25.4,23.9,30.18,North,355,0.0,0.0,94,0.00,,,0.09,Wunderground v.1.15,2013-03-06 03:40:00,
2013-03-05 21:45:00,25.4,23.9,30.18,NNW,331,0.0,0.0,94,0.00,,,0.09,Wunderground v.1.15,2013-03-06 03:45:00,
2013-03-05 21:55:00,25.5,24.0,30.19,NNW,342,0.0,0.0,94,0.00,,,0.09,Wunderground v.1.15,2013-03-06 03:55:00,
2013-03-05 22:00:00,25.5,24.0,30.19,NNW,346,0.0,0.0,94,0.00,,,0.09,Wunderground v.1.15,2013-03-06 04:00:00,
2013-03-05 22:05:00,25.5,24.0,30.19,NNW,327,0.0,0.0,94,0.00,,,0.09,Wunderground v.1.15,2013-03-06 04:05:00,
2013-03-05 22:15:00,25.6,24.1,30.19,NW,323,0.0,0.0,94,0.00,,,0.09,Wunderground v.1.15,2013-03-06 04:15:00,
2013-03-05 22:20:00,25.6,24.1,30.20,NW,323,0.0,0.0,94,0.00,,,0.09,Wunderground v.1.15,2013-03-06 04:20:00,
2013-03-05 22:30:00,25.7,24.0,30.20,NW,307,0.0,0.0,93,0.00,,,0.09,Wunderground v.1.15,2013-03-06 04:30:00,
2013-03-05 22:35:00,25.7,24.0,30.20,NNW,327,0.0,0.0,93,0.00,,,0.09,Wunderground v.1.15,2013-03-06 04:35:00,
2013-03-05 22:40:00,25.7,24.0,30.20,NNW,338,0.0,0.0,93,0.00,,,0.09,Wunderground v.1.15,2013-03-06 04:40:00,
2013-03-05 22:45:00,25.7,24.0,30.20,NNW,337,0.0,0.0,93,0.00,,,0.09,Wunderground v.1.15,2013-03-06 04:45:00,
2013-03-05 22:50:00,25.8,24.1,30.20,WNW,303,0.0,0.0,93,0.00,,,0.09,Wunderground v.1.15,2013-03-06 04:50:00,
2013-03-05 23:00:00,25.8,24.1,30.20,North,355,0.0,0.0,93,0.00,,,0.09,Wunderground v.1.15,2013-03-06 05:00:00,
2013-03-05 23:05:00,25.8,24.1,30.21,NNW,335,0.0,0.0,93,0.00,,,0.09,Wunderground v.1.15,2013-03-06 05:05:00,
2013-03-05 23:10:00,25.8,24.1,30.21,NW,321,0.0,0.0,93,0.00,,,0.09,Wunderground v.1.15,2013-03-06 05:10:00,
2013-03-05 23:15:00,25.8,24.1,30.21,NW,324,0.0,0.0,93,0.00,,,0.09,Wunderground v.1.15,2013-03-06 05:15:00,
2013-03-05 23:20:00,25.8,24.1,30.21,NW,323,0.0,0.0,93,0.00,,,0.09,Wunderground v.1.15,2013-03-06 05:20:00,
2013-03-05 23:30:00,25.6,23.6,30.22,NW,307,0.0,0.0,92,0.00,,,0.09,Wunderground v.1.15,2013-03-06 05:30:00,
2013-03-05 23:40:00,25.4,23.4,30.22,NNW,344,0.0,0.0,92,0.00,,,0.09,Wunderground v.1.15,2013-03-06 05:40:00,
2013-03-05 23:45:00,25.4,23.4,30.22,NNW,331,0.0,0.0,92,0.00,,,0.09,Wunderground v.1.15,2013-03-06 05:45:00,
2013-03-05 23:50:00,25.4,23.4,30.22,NW,325,0.0,0.0,92,0.00,,,0.09,Wunderground v.1.15,2013-03-06 05:50:00,
2013-03-05 23:55:00,25.4,23.4,30.23,NNW,340,0.0,0.0,92,0.00,,,0.09,Wunderground v.1.15,2013-03-06 05:55:00,